Elk Grove Village, IL

6:22 PM CST en Enero 29, 2015 (GMT -0600)
Du Page | Change Station
CLOSE
Current Station
Aeropuerto
Location: Chicago DuPage,
Altura: 758 ft
Estaciones meteorológicas cercanas

Alt 758 ft 41.90 °N, 88.25 °W | Updated 30 minutes ago

Nublado
Nublado
34 ° F
Sensación térmica 25 ° F
N
14
Viento Variable Viento desde NO

Hoy
Alta -- | Baja -- ° F
--% Posibilidad de precipitaciones
Ayer
Alta -- | Baja -- ° F
Precip. -- pul
7:07 AM 5:02 PM
Gibosa creciente, 78% visible
Presión 30.18 pul
Visibilidad 10.0 Millas
Nubes Nublado 3200 ft
Vientos helados 25 ° F
Punto de rocío 25 ° F
Humedad 70%
Precipitaciones 0.00 pul
Espesor de la nieve No disponible.
UV 0 de una escala de 12
Polen .10 de una escala de 12
Calidad del aire No disponible.
Flu Activity No disponible.
METAR KDPA 292352Z 32012KT 10SM OVC032 01/M04 A3015 RMK AO2 SLP219 60000 T00111039 10017 20006 53042

More Conditions Fewer Conditions

Presión 30.18 pul
Visibilidad 10.0 Millas
Nubes Nublado 3200 ft
Vientos helados 25 ° F
Punto de rocío 25 ° F
Humedad 70%
Precipitaciones 0.00 pul
Espesor de la nieve No disponible.
UV 0 de una escala de 12
Polen .10 de una escala de 12
Calidad del aire No disponible.
Flu Activity No disponible.
METAR KDPA 292352Z 32012KT 10SM OVC032 01/M04 A3015 RMK AO2 SLP219 60000 T00111039 10017 20006 53042

More Conditions Fewer Conditions

10-Day Weather Forecast

Almanac

Astronomía

Jan. 29, 2015 Salida Puesta
Hora real
Crepúsculo civil
Crepúsculo náutico
Crepúsculo astronómico
Luna
Horas de luz
Horas de luz
Tomorrow will be .
, % of the Moon is Illuminated

Extremos de hoy

Máximos del estado Bajos del estado

Community

WunderPhotos

Upload Photos

1,791,651 ¡fotos cargadas!

WunderBlogs® & News

Nearby

Calidad del aire

  Calidad del aire Índice AQ Contaminante
Not available.

Grosos de nieve

Estación Profundido Altura

Actividad de terremotos

Ciudad Distance Mag. Tiempo y dato
Magnitud mínima muestra es 2,5.

Temperaturas de aguas costeras

Lugar Temperatura

Estaciones meteorológicas cercanas